Regional Weather Roundup
Issued by NWS

Home | Current Version | Previous Version | Text Only | Print | Product List | Glossary Off
Versions: 1 2 3 4 5 6 7 8 9 10 11 12 13 14 15 16 17 18 19 20 21 22 23 24 25 26 27 28 29 30 31 32 33 34 35 36 37 38 39 40 41 42 43 44 45 46 47 48 49 50

000
ASUS43 KLSX 191959
RWRMO

WEATHER SUMMARY FOR MISSOURI
NATIONAL WEATHER SERVICE SPRINGFIELD MO
300 PM CDT SAT APR 19 2014

NOTE: "FAIR" INDICATES FEW OR NO CLOUDS BELOW 12,000 FEET WITH NO
       SIGNIFICANT WEATHER AND/OR OBSTRUCTIONS TO VISIBILITY.
       CURRENT SKY AND/OR WEATHER CONDITIONS ARE NOT AVAILABLE FOR
       CHILLICOTHE AND FARMINGTON.

MOZ001>031-035>038-043-044-053-054-192100-
...NORTHERN AND WESTERN MISSOURI...

CITY           SKY/WX    TMP DP  RH WIND       PRES   REMARKS
KANSAS CTY INT MOSUNNY   76  44  32 S21       30.10F
KANSAS C DTWN  SUNNY     78  45  30 SE17G25   30.10F
LEE`S SUMMIT   SUNNY     75  46  35 S14G25    30.13F
ST JOSEPH      MOSUNNY   78  42  27 S16G29    30.08F
CHILLICOTHE      N/A     75  44  33 S15G23    30.12F
KIRKSVILLE     MOSUNNY   76  42  29 S15G21    30.16F

$$
MOZ066>068-077>081-088>096-101>105-192100-
...SOUTHWEST MISSOURI...

CITY           SKY/WX    TMP DP  RH WIND       PRES   REMARKS
SPRINGFIELD    MOSUNNY   74  44  34 VRB6G18   30.16F
JOPLIN         MOSUNNY   76  44  32 S13G21    30.14F

$$
MOZ032>034-039>042-045>050-055>058-069>072-192100-
...CENTRAL MISSOURI...

CITY           SKY/WX    TMP DP  RH WIND       PRES   REMARKS
COLUMBIA       MOSUNNY   75  41  29 S10       30.18F
JEFFERSON CITY MOSUNNY   76  40  27 S9        30.16F
ROLLA          SUNNY     74  40  29 SE8       30.17F
SEDALIA        MOSUNNY   76  46  34 S10G17    30.17F
OSAGE BEACH    MOSUNNY   75  37  25 S10       30.18F

$$
MOZ051-052-059>065-192100-
...EAST CENTRAL MISSOURI...

CITY           SKY/WX    TMP DP  RH WIND       PRES   REMARKS
ST LOUIS INTL  PTSUNNY   75  39  27 S7        30.21F
SPIRIT OF STL  SUNNY     73  39  29 SE5       30.20F
ST CHARLES     SUNNY     74  42  31 SE8       30.20F

$$
MOZ072>076-082>087-097>100-106>115-192100-
...SOUTH CENTRAL AND SOUTHEAST MISSOURI...

CITY           SKY/WX    TMP DP  RH WIND       PRES   REMARKS
CAPE GIRARDEAU SUNNY     76  41  28 N3        30.18F
FARMINGTON     SUNNY     73  43  33 E7        30.22F
POPLAR BLUFF   SUNNY     75  39  27 VRB6      30.18F
WEST PLAINS    MOSUNNY   73  39  29 S7G16     30.20F

$$



USA.gov is the U.S. government's official web portal to all federal, state and local government web resources and services.